When you browse on this site, cookies collect data to enhance your experience and personalize the content and advertising you see.
Visit our Privacy Policy to learn more. By continuing to use the site, you agree to this use of cookies and data.
  • In Lithuania
  • List of Countries
  • For 7 days
  • Water Temperature
  • Weather Map
  • Weather Widgets
  • user-avatar
    Login

    Hourly Weather Asuan

    Today, 22 February, Saturday

    Time Temperature Precipitation Wind Pressure Humidity
    00:00 +15°C° 0 mm 4 mps 746 mmHg 30%
    01:00 +15°C° 0 mm 4 mps 745 mmHg 33%
    02:00 +14°C° 0 mm 4 mps 745 mmHg 35%
    03:00 +14°C° 0 mm 4 mps 745 mmHg 37%
    04:00 +13°C° 0 mm 4 mps 745 mmHg 40%
    05:00 +13°C° 0 mm 4 mps 746 mmHg 42%
    06:00 +14°C° 0 mm 4 mps 746 mmHg 41%
    07:00 +15°C° 0 mm 4 mps 746 mmHg 40%
    08:00 +17°C° 0 mm 4 mps 747 mmHg 39%
    09:00 +18°C° 0 mm 4 mps 747 mmHg 35%
    10:00 +20°C° 0 mm 4 mps 747 mmHg 31%
    11:00 +22°C° 0 mm 4 mps 747 mmHg 27%
    12:00 +23°C° 0 mm 4 mps 746 mmHg 24%
    13:00 +25°C° 0 mm 3 mps 746 mmHg 21%
    14:00 +27°C° 0 mm 3 mps 745 mmHg 18%
    15:00 +26°C° 0 mm 3 mps 745 mmHg 18%
    16:00 +26°C° 0 mm 4 mps 745 mmHg 17%
    17:00 +26°C° 0 mm 4 mps 745 mmHg 17%
    18:00 +23°C° 0 mm 4 mps 745 mmHg 20%
    19:00 +21°C° 0 mm 4 mps 745 mmHg 22%
    20:00 +19°C° 0 mm 4 mps 746 mmHg 25%
    21:00 +18°C° 0 mm 4 mps 746 mmHg 27%
    22:00 +17°C° 0 mm 4 mps 746 mmHg 29%
    23:00 +15°C° 0 mm 4 mps 746 mmHg 31%

    Tomorrow, 23 February, Sunday

    Time Temperature Precipitation Wind Pressure Humidity
    00:00 +14°C° 0 mm 4 mps 746 mmHg 32%
    01:00 +14°C° 0 mm 4 mps 746 mmHg 33%
    02:00 +13°C° 0 mm 4 mps 745 mmHg 35%
    03:00 +13°C° 0 mm 4 mps 745 mmHg 36%
    04:00 +12°C° 0 mm 3 mps 745 mmHg 38%
    05:00 +12°C° 0 mm 3 mps 746 mmHg 39%
    06:00 +13°C° 0 mm 3 mps 746 mmHg 37%
    07:00 +14°C° 0 mm 3 mps 746 mmHg 35%
    08:00 +16°C° 0 mm 3 mps 746 mmHg 34%
    09:00 +17°C° 0 mm 3 mps 746 mmHg 30%
    10:00 +19°C° 0 mm 3 mps 746 mmHg 27%
    11:00 +21°C° 0 mm 3 mps 746 mmHg 23%
    12:00 +22°C° 0 mm 3 mps 745 mmHg 21%
    13:00 +24°C° 0 mm 3 mps 745 mmHg 18%
    14:00 +25°C° 0 mm 3 mps 744 mmHg 15%
    15:00 +25°C° 0 mm 4 mps 744 mmHg 15%
    16:00 +25°C° 0 mm 4 mps 744 mmHg 15%
    17:00 +25°C° 0 mm 4 mps 744 mmHg 15%
    18:00 +22°C° 0 mm 5 mps 744 mmHg 17%
    19:00 +20°C° 0 mm 5 mps 744 mmHg 20%
    20:00 +17°C° 0 mm 6 mps 744 mmHg 23%
    21:00 +17°C° 0 mm 6 mps 745 mmHg 25%
    22:00 +16°C° 0 mm 5 mps 745 mmHg 27%
    23:00 +16°C° 0 mm 5 mps 745 mmHg 29%

    Day after tomorrow, 24 February, Monday

    Time Temperature Precipitation Wind Pressure Humidity
    00:00 +15°C° 0 mm 5 mps 745 mmHg 31%
    01:00 +14°C° 0 mm 4 mps 745 mmHg 32%
    02:00 +13°C° 0 mm 4 mps 744 mmHg 34%
    03:00 +13°C° 0 mm 4 mps 744 mmHg 36%
    04:00 +12°C° 0 mm 4 mps 744 mmHg 39%
    05:00 +12°C° 0 mm 4 mps 744 mmHg 41%
    06:00 +13°C° 0 mm 4 mps 744 mmHg 40%
    07:00 +14°C° 0 mm 5 mps 745 mmHg 39%
    08:00 +14°C° 0 mm 5 mps 745 mmHg 38%
    09:00 +16°C° 0 mm 5 mps 745 mmHg 34%
    10:00 +17°C° 0 mm 5 mps 745 mmHg 30%
    11:00 +20°C° 0 mm 5 mps 745 mmHg 26%
    12:00 +21°C° 0 mm 6 mps 744 mmHg 25%
    13:00 +21°C° 0 mm 7 mps 744 mmHg 24%
    14:00 +22°C° 0 mm 8 mps 743 mmHg 23%
    15:00 +21°C° 0 mm 8 mps 743 mmHg 23%
    16:00 +20°C° 0 mm 8 mps 744 mmHg 23%
    17:00 +18°C° 0 mm 9 mps 744 mmHg 23%
    18:00 +16°C° 0 mm 8 mps 744 mmHg 29%
    19:00 +14°C° 0 mm 7 mps 745 mmHg 36%
    20:00 +11°C° 0 mm 7 mps 746 mmHg 43%
    21:00 +11°C° 0 mm 6 mps 746 mmHg 46%
    22:00 +10°C° 0 mm 5 mps 746 mmHg 49%
    23:00 +9°C° 0 mm 5 mps 747 mmHg 52%

    25 February, Tuesday

    Time Temperature Precipitation Wind Pressure Humidity
    00:00 +9°C° 0 mm 5 mps 746 mmHg 51%
    01:00 +10°C° 0 mm 4 mps 746 mmHg 51%
    02:00 +8°C° 0 mm 4 mps 746 mmHg 50%
    03:00 +8°C° 0 mm 4 mps 746 mmHg 52%
    04:00 +7°C° 0 mm 4 mps 746 mmHg 55%
    05:00 +7°C° 0 mm 4 mps 746 mmHg 58%
    06:00 +8°C° 0 mm 5 mps 747 mmHg 58%
    07:00 +9°C° 0 mm 5 mps 747 mmHg 58%
    08:00 +11°C° 0 mm 6 mps 748 mmHg 58%
    09:00 +14°C° 0 mm 6 mps 748 mmHg 49%
    10:00 +16°C° 0 mm 7 mps 748 mmHg 40%
    11:00 +18°C° 0 mm 7 mps 748 mmHg 31%
    12:00 +20°C° 0 mm 7 mps 747 mmHg 27%
    13:00 +22°C° 0 mm 7 mps 746 mmHg 23%
    14:00 +23°C° 0 mm 6 mps 746 mmHg 19%
    15:00 +22°C° 0 mm 6 mps 746 mmHg 20%
    16:00 +22°C° 0 mm 6 mps 746 mmHg 20%
    17:00 +22°C° 0 mm 5 mps 746 mmHg 21%
    18:00 +20°C° 0 mm 5 mps 746 mmHg 25%
    19:00 +17°C° 0 mm 5 mps 746 mmHg 29%
    20:00 +15°C° 0 mm 4 mps 747 mmHg 33%
    21:00 +14°C° 0 mm 4 mps 747 mmHg 35%
    22:00 +14°C° 0 mm 4 mps 747 mmHg 37%
    23:00 +13°C° 0 mm 4 mps 747 mmHg 39%

    26 February, Wednesday

    Time Temperature Precipitation Wind Pressure Humidity
    00:00 +13°C° 0 mm 4 mps 747 mmHg 43%
    01:00 +12°C° 0 mm 4 mps 746 mmHg 47%
    02:00 +12°C° 0 mm 4 mps 746 mmHg 51%
    03:00 +12°C° 0 mm 4 mps 746 mmHg 53%
    04:00 +11°C° 0 mm 4 mps 746 mmHg 55%
    05:00 +11°C° 0 mm 4 mps 746 mmHg 57%
    06:00 +12°C° 0 mm 4 mps 746 mmHg 53%
    07:00 +13°C° 0 mm 4 mps 747 mmHg 49%
    08:00 +15°C° 0 mm 4 mps 747 mmHg 46%
    09:00 +17°C° 0 mm 4 mps 747 mmHg 41%
    10:00 +19°C° 0 mm 4 mps 747 mmHg 36%
    11:00 +21°C° 0 mm 4 mps 747 mmHg 31%
    12:00 +22°C° 0 mm 4 mps 746 mmHg 27%
    13:00 +25°C° 0 mm 3 mps 745 mmHg 24%
    14:00 +26°C° 0 mm 3 mps 745 mmHg 21%
    15:00 +26°C° 0 mm 3 mps 744 mmHg 21%
    16:00 +26°C° 0 mm 3 mps 744 mmHg 20%
    17:00 +26°C° 0 mm 3 mps 744 mmHg 20%
    18:00 +24°C° 0 mm 3 mps 745 mmHg 23%
    19:00 +21°C° 0 mm 3 mps 745 mmHg 26%
    20:00 +19°C° 0 mm 3 mps 745 mmHg 29%
    21:00 +18°C° 0 mm 3 mps 745 mmHg 29%
    22:00 +18°C° 0 mm 3 mps 746 mmHg 29%
    23:00 +17°C° 0 mm 3 mps 746 mmHg 30%

    27 February, Thursday

    Time Temperature Precipitation Wind Pressure Humidity
    00:00 +17°C° 0 mm 3 mps 746 mmHg 31%
    01:00 +16°C° 0 mm 3 mps 746 mmHg 32%
    02:00 +16°C° 0 mm 3 mps 745 mmHg 33%
    03:00 +16°C° 0 mm 3 mps 745 mmHg 34%
    04:00 +14°C° 0 mm 3 mps 745 mmHg 36%
    05:00 +14°C° 0 mm 3 mps 745 mmHg 38%
    06:00 +16°C° 0 mm 3 mps 745 mmHg 38%
    07:00 +17°C° 0 mm 3 mps 746 mmHg 38%
    08:00 +18°C° 0 mm 3 mps 746 mmHg 38%
    09:00 +21°C° 0 mm 3 mps 746 mmHg 33%
    10:00 +24°C° 0 mm 3 mps 746 mmHg 27%
    11:00 +26°C° 0 mm 3 mps 746 mmHg 22%
    12:00 +27°C° 0 mm 3 mps 745 mmHg 19%
    13:00 +28°C° 0 mm 2 mps 744 mmHg 17%
    14:00 +30°C° 0 mm 2 mps 744 mmHg 14%
    15:00 +29°C° 0 mm 2 mps 744 mmHg 14%
    16:00 +29°C° 0 mm 3 mps 744 mmHg 14%
    17:00 +29°C° 0 mm 3 mps 743 mmHg 14%
    18:00 +27°C° 0 mm 3 mps 744 mmHg 17%
    19:00 +24°C° 0 mm 3 mps 744 mmHg 20%
    20:00 +21°C° 0 mm 2 mps 744 mmHg 23%
    21:00 +20°C° 0 mm 3 mps 744 mmHg 23%
    22:00 +20°C° 0 mm 4 mps 745 mmHg 23%
    23:00 +20°C° 0 mm 4 mps 745 mmHg 23%
    Show more